Cecil Field, FL

8:33 AM EDT on June 26, 2017 (GMT -0400)
Cecil

Weather History for KVQQ - May, 2013

Change the Weather History Date:

Wednesday, May 29, 2013

  Actual Average (KNIP) Record (KNIP)
Temperature  
Mean Temperature 73 °F -  
Max Temperature 84 °F 86 °F 96 °F (2017)
Min Temperature 62 °F 69 °F 63 °F (2003)
Cooling Degree Days 8    
Growing Degree Days 23 (Base 50)    
Moisture  
Dew Point 68 °F    
Average Humidity 89    
Maximum Humidity 100    
Minimum Humidity 66    
Precipitation  
Precipitation 0.00 in - - ()
Sea Level Pressure  
Sea Level Pressure 30.15 in    
Wind  
Wind Speed 3 mph (East)    
Max Wind Speed 20 mph    
Max Gust Speed -    
Visibility 9 miles    
Events Rain    
Averages and records for this station are not official NWS values.
T = Trace of Precipitation, MM = Missing Value Source: NWS Daily Summary

Daily Weather History Graph

Daily Weather History Graph

Search for Another Location

Airport or City:

Trip Planner

Search our weather history database for the weather conditions in past years. The results will help you decide how hot, cold, wet, or windy it might be!

Date:

Astronomy

May. 29, 2013 Rise Set
Actual Time 6:27 AM EDT 8:23 PM EDT
Civil Twilight 6:00 AM EDT 8:50 PM EDT
Nautical Twilight 5:27 AM EDT 9:22 PM EDT
Astronomical Twilight 4:52 AM EDT 9:57 PM EDT
Moon No Moon Rise 11:13 AM EDT (5/29)
Length of Visible Light 14h 49m
Length of Day
13h 55m
Waning Gibbous, 73% of the Moon is Illuminated
May 29
Waning Gibbous
May 31
Last Quarter
Jun 8
New
Jun 16
First Quarter
Jun 23
Full

Hourly Weather History & Observations

Time (EDT) Temp. Heat Index Dew Point Humidity Pressure Visibility Wind Dir Wind Speed Gust Speed Precip Events Conditions
12:15 AM 71.6 °F - 68.0 °F 88% 30.17 in 10.0 mi Calm Calm - N/A   Clear
12:35 AM 71.6 °F - 68.0 °F 88% 30.17 in 10.0 mi Calm Calm - N/A   Clear
12:55 AM 69.8 °F - 68.0 °F 94% 30.16 in 10.0 mi Calm Calm - N/A   Clear
1:15 AM 71.6 °F - 68.0 °F 88% 30.16 in 10.0 mi Calm Calm - N/A   Scattered Clouds
1:35 AM 69.8 °F - 68.0 °F 94% 30.15 in 10.0 mi Calm Calm - N/A   Partly Cloudy
1:55 AM 68.0 °F - 66.2 °F 94% 30.14 in 10.0 mi Calm Calm - N/A   Clear
2:15 AM 66.2 °F - 66.2 °F 100% 30.14 in 7.0 mi Calm Calm - N/A   Clear
2:35 AM 64.4 °F - 64.4 °F 100% 30.13 in 9.0 mi Calm Calm - N/A   Clear
2:55 AM 64.4 °F - 64.4 °F 100% 30.13 in 5.0 mi Calm Calm - N/A   Clear
3:15 AM 64.4 °F - 64.4 °F 100% 30.13 in 5.0 mi Calm Calm - N/A Rain Light Rain
3:35 AM 62.6 °F - 62.6 °F 100% 30.13 in 4.0 mi Calm Calm - N/A   Clear
3:55 AM 64.4 °F - 64.4 °F 100% 30.13 in 6.0 mi Calm Calm - N/A   Scattered Clouds
4:15 AM 62.6 °F - 62.6 °F 100% 30.12 in 8.0 mi Calm Calm - N/A   Partly Cloudy
4:35 AM 62.6 °F - 62.6 °F 100% 30.12 in 10.0 mi Calm Calm - N/A   Clear
4:55 AM 62.6 °F - 62.6 °F 100% 30.12 in 8.0 mi Calm Calm - N/A   Clear
5:15 AM 62.6 °F - 62.6 °F 100% 30.12 in 8.0 mi Calm Calm - N/A   Partly Cloudy
5:35 AM 62.6 °F - 62.6 °F 100% 30.12 in 7.0 mi Calm Calm - N/A   Clear
5:55 AM 62.6 °F - 62.6 °F 100% 30.13 in 1.0 mi Calm Calm - N/A   Mostly Cloudy
6:15 AM 62.6 °F - 62.6 °F 100% 30.13 in 5.0 mi Calm Calm - N/A   Partly Cloudy
6:35 AM 62.6 °F - 62.6 °F 100% 30.14 in 2.5 mi Calm Calm - N/A   Clear
6:50 AM 62.6 °F - 62.6 °F 100% 30.14 in 10.0 mi Calm Calm - N/A   Clear
7:50 AM 69.8 °F - 69.8 °F 100% 30.16 in 10.0 mi Variable 5.8 mph - N/A   Mostly Cloudy
8:50 AM 77.0 °F - 71.6 °F 83% 30.18 in 10.0 mi East 8.1 mph - N/A   Mostly Cloudy
9:50 AM 78.8 °F - 71.6 °F 78% 30.18 in 10.0 mi East 9.2 mph - N/A   Mostly Cloudy
10:50 AM 78.8 °F - 71.6 °F 78% 30.18 in 10.0 mi ESE 11.5 mph - N/A   Mostly Cloudy
11:50 AM 82.4 °F 87.2 °F 71.6 °F 70% 30.18 in 10.0 mi ESE 13.8 mph - N/A   Mostly Cloudy
12:50 PM 80.6 °F 84.6 °F 71.6 °F 74% 30.17 in 10.0 mi ESE 11.5 mph - N/A   Mostly Cloudy
1:50 PM 82.4 °F 87.2 °F 71.6 °F 70% 30.16 in 10.0 mi ESE 12.7 mph - N/A   Scattered Clouds
2:50 PM 84.2 °F 89.6 °F 71.6 °F 66% 30.15 in 10.0 mi East 19.6 mph - N/A   Scattered Clouds
3:50 PM 84.2 °F 90.9 °F 73.4 °F 70% 30.14 in 10.0 mi East 17.3 mph - N/A   Scattered Clouds
4:50 PM 82.4 °F 87.2 °F 71.6 °F 70% 30.12 in 10.0 mi East 17.3 mph - N/A   Scattered Clouds
5:50 PM 82.4 °F 87.2 °F 71.6 °F 70% 30.12 in 10.0 mi ESE 13.8 mph - N/A   Scattered Clouds
6:50 PM 80.6 °F 83.9 °F 69.8 °F 70% 30.12 in 10.0 mi East 11.5 mph - N/A   Scattered Clouds
7:50 PM 77.0 °F - 69.8 °F 78% 30.13 in 10.0 mi East 16.1 mph - N/A   Scattered Clouds
8:15 PM 77.0 °F - 71.6 °F 83% 30.13 in 10.0 mi East 4.6 mph - N/A   Partly Cloudy
8:35 PM 77.0 °F - 71.6 °F 83% 30.14 in 10.0 mi East 4.6 mph - N/A   Clear
8:55 PM 77.0 °F - 71.6 °F 83% 30.14 in 10.0 mi East 3.5 mph - N/A   Scattered Clouds
9:15 PM 77.0 °F - 71.6 °F 83% 30.14 in 10.0 mi East 4.6 mph - N/A   Scattered Clouds
9:35 PM 75.2 °F - 71.6 °F 89% 30.14 in 10.0 mi East 5.8 mph - N/A   Clear
9:55 PM 75.2 °F - 71.6 °F 89% 30.15 in 10.0 mi East 4.6 mph - N/A   Partly Cloudy
10:15 PM 75.2 °F - 71.6 °F 89% 30.16 in 10.0 mi East 5.8 mph - N/A   Partly Cloudy
10:35 PM 75.2 °F - 73.4 °F 94% 30.17 in 10.0 mi East 4.6 mph - N/A   Partly Cloudy
10:55 PM 75.2 °F - 73.4 °F 94% 30.17 in 10.0 mi East 3.5 mph - N/A   Mostly Cloudy
11:15 PM 75.2 °F - 71.6 °F 89% 30.17 in 10.0 mi East 3.5 mph - N/A   Scattered Clouds
11:35 PM 75.2 °F - 71.6 °F 89% 30.16 in 10.0 mi Calm Calm - N/A   Partly Cloudy
11:55 PM 73.4 °F - 71.6 °F 94% 30.16 in 10.0 mi Calm Calm - N/A   Clear